Wind_Speed
4 4 5 6 6 7 8 9 9 10 10 11 11 11 11 12 12 12 13 13 13 13 13 14 14 14 14 13 12 11 11 10 9 8 7 6 6 5 5 5 3 2 2
5 5 6 6 6 7 8 9 10 11 11 11 11 11 11 11 11 12 12 12 13 13 14 14 14 15 15 15 14 13 12 12 11 9 8 8 7 6 6 5 4 3 2
5 6 6 6 7 7 8 9 10 11 11 10 10 10 10 10 11 11 11 12 13 13 14 14 14 15 15 15 15 14 13 13 12 11 10 9 8 7 6 6 5 4 3
5 6 6 6 7 7 8 9 10 10 10 10 10 9 9 9 10 11 12 12 13 13 13 14 15 14 15 16 16 16 15 14 14 13 11 10 10 8 7 7 6 5 5
5 5 6 6 7 8 9 9 9 9 9 9 9 9 10 10 10 11 12 13 13 14 14 15 15 15 15 16 17 17 17 16 15 14 13 12 11 10 9 8 7 7 6
5 5 6 7 7 8 8 8 8 8 8 9 9 10 11 11 12 12 13 13 14 14 15 15 16 16 16 16 17 18 18 17 17 16 14 13 12 11 10 9 9 8 7
5 6 6 7 7 8 8 7 7 8 9 9 10 11 12 13 13 14 14 14 14 15 15 15 16 16 16 17 18 18 19 19 18 17 16 15 13 12 12 11 10 9 8
5 6 7 7 7 7 7 7 8 9 10 10 11 12 13 14 14 15 15 15 15 15 15 15 15 15 16 17 18 18 18 20 19 18 18 17 15 14 13 12 11 11 10
6 6 7 7 6 6 7 7 8 9 10 11 12 13 14 15 15 15 15 16 16 16 16 15 15 15 15 16 17 18 19 20 20 19 19 19 17 15 14 14 13 12 12
6 6 6 6 6 6 7 8 9 10 11 12 13 14 15 15 15 16 16 15 16 16 16 16 16 15 15 16 17 18 20 20 20 20 20 20 19 17 16 15 14 13 13
6 6 6 6 6 7 7 8 10 11 12 13 13 14 15 15 16 16 16 16 16 16 17 17 17 16 16 16 17 18 19 20 21 21 21 21 20 19 17 16 15 15 14
7 7 7 7 7 7 8 9 10 12 13 13 14 15 15 16 16 16 16 17 17 17 17 17 17 17 17 17 17 18 19 21 22 21 22 22 22 21 19 18 16 16 16
7 8 8 7 8 8 9 10 11 13 14 14 15 15 16 16 16 16 17 17 17 17 17 17 18 18 18 18 18 18 20 21 22 23 22 23 23 22 21 19 18 17 17
8 8 8 8 8 9 10 11 12 13 14 15 15 15 16 16 16 16 17 17 17 17 17 18 18 17 18 18 18 18 20 21 22 23 23 24 24 24 22 21 19 18 18
8 9 9 9 9 9 10 11 12 13 14 15 15 15 15 16 16 17 17 17 17 17 18 18 17 17 17 18 18 18 20 21 22 23 24 24 25 25 23 22 21 20 20
9 9 9 9 10 10 11 12 13 13 14 14 15 15 16 16 16 17 17 18 17 17 18 18 17 17 16 16 17 18 19 21 23 24 24 25 26 26 25 23 22 21 21
9 10 10 10 10 11 11 12 12 13 14 15 15 16 16 17 17 17 17 18 17 18 18 18 17 16 15 15 16 18 19 21 23 24 25 26 26 27 26 25 23 22 22
10 10 10 10 11 11 11 11 12 13 14 15 15 16 17 17 17 17 17 18 18 18 18 17 16 15 15 15 15 17 19 21 23 25 25 26 27 27 27 26 25 23 22
10 10 10 10 11 11 11 12 12 13 14 15 15 16 17 18 18 17 18 18 18 19 18 16 15 14 13 13 13 15 17 20 22 25 25 26 27 27 26 26 26 24 23
10 10 10 10 11 11 11 11 12 13 14 15 15 16 17 18 18 18 18 18 19 19 17 14 13 12 11 11 12 13 15 18 22 24 26 26 26 27 27 26 25 24 23
10 10 10 10 11 11 11 11 12 13 14 14 15 16 17 19 19 19 18 19 18 18 16 13 11 10 9 9 10 12 14 16 20 23 26 26 26 27 27 27 26 25 24
9 10 10 10 10 11 11 11 12 12 13 14 15 16 17 19 20 20 18 18 18 17 15 13 11 9 7 7 8 10 13 15 19 22 24 25 25 26 27 27 26 25 25
9 9 10 10 10 10 11 11 12 12 13 14 15 16 17 19 20 20 19 18 17 16 15 13 10 8 6 5 7 9 11 14 18 20 22 24 25 26 27 28 27 26 25
9 9 10 10 10 10 11 11 12 12 13 14 15 16 17 19 20 20 19 18 17 16 15 12 9 7 5 4 5 7 9 12 16 18 21 23 24 25 26 27 27 26 26
9 9 10 10 10 10 11 12 12 13 13 14 15 16 17 18 19 20 19 18 17 17 15 12 9 6 4 2 3 5 8 11 14 16 19 22 23 24 25 27 27 26 25
9 9 9 9 10 10 11 12 13 14 14 15 15 16 17 18 19 19 19 18 18 17 15 12 9 7 4 2 2 4 7 9 12 15 18 20 22 23 24 27 27 26 25
Wind_Direction
296 301 306 309 314 319 321 319 319 320 318 314 311 307 303 299 296 294 290 285 280 275 269 265 262 257 254 252 250 245 239 237 239 239 241 245 251 253 260 267 271 271 290
291 295 301 305 312 318 320 321 322 319 315 313 311 309 307 303 299 295 290 286 282 277 272 265 263 260 254 252 249 244 239 237 237 239 240 240 244 248 252 254 255 252 263
288 295 301 306 312 317 318 318 318 317 316 315 315 311 308 305 303 300 294 289 283 278 275 268 264 260 256 253 247 243 239 236 236 237 238 237 239 242 242 244 243 239 240
290 295 301 304 310 313 315 315 315 316 316 318 318 316 312 308 305 302 299 296 288 282 279 272 266 261 257 253 248 243 241 237 236 235 234 234 235 236 235 235 233 231 227
293 296 300 303 307 313 315 316 316 317 318 319 319 317 316 312 308 304 301 298 293 287 282 277 270 262 260 255 249 244 240 237 234 233 231 231 231 230 229 230 225 223 219
296 301 303 306 308 313 314 316 318 319 320 320 319 318 316 313 309 306 303 299 296 291 285 280 274 267 264 256 250 244 239 235 231 231 229 228 227 227 226 225 220 218 213
302 304 304 306 308 313 315 316 320 322 321 319 318 317 316 314 311 307 304 300 296 292 288 282 278 272 265 257 251 245 238 234 231 229 227 225 225 225 222 219 217 215 210
299 300 302 305 310 314 315 318 320 320 320 319 318 318 317 315 313 310 306 303 299 295 292 287 281 276 268 259 249 243 237 234 231 228 226 222 220 220 218 215 213 212 210
294 297 305 305 307 309 311 314 317 318 319 319 318 318 318 316 314 311 309 306 303 299 296 291 285 278 271 262 251 243 236 234 232 229 225 220 218 217 214 213 213 211 210
297 298 299 299 302 303 306 312 315 318 321 320 319 319 319 318 315 313 311 309 305 301 297 293 288 279 271 263 255 246 237 233 230 227 223 219 216 214 212 210 210 208 207
295 295 295 296 299 302 306 312 316 319 321 321 320 319 320 318 317 314 312 309 306 302 297 293 289 282 274 265 257 247 238 231 228 225 222 218 215 212 211 210 208 206 204
296 296 293 292 298 303 308 312 316 319 320 320 320 320 321 320 318 316 313 310 307 303 299 294 288 282 275 267 257 247 238 231 227 224 221 218 215 212 211 209 207 206 202
296 296 292 292 298 302 307 312 315 318 320 320 320 321 321 321 320 318 316 313 309 304 300 296 290 283 276 269 258 248 238 232 226 224 220 217 214 213 212 209 207 205 202
295 295 294 295 298 302 307 311 314 317 319 319 321 322 323 323 322 320 318 315 310 305 302 299 293 285 278 270 260 248 237 231 226 222 219 216 213 212 212 210 207 205 202
294 293 296 299 299 301 306 311 315 318 319 321 323 325 325 324 324 322 320 317 312 308 305 301 295 288 279 268 258 248 237 229 225 221 218 216 213 211 212 209 208 206 204
292 293 294 297 298 301 306 312 316 320 322 324 326 327 327 326 325 323 322 319 315 311 307 302 296 289 281 269 255 244 235 227 223 220 216 214 213 211 212 211 209 208 206
294 294 293 294 297 301 305 312 318 322 325 327 328 329 330 329 327 326 325 323 319 315 310 303 296 289 282 270 255 243 233 227 222 219 217 215 213 211 211 210 210 208 208
295 294 292 293 296 299 304 311 319 324 326 329 331 333 334 332 331 329 328 326 322 320 316 307 298 289 282 270 255 243 233 227 221 218 216 214 212 211 212 211 211 210 209
296 294 293 294 296 298 303 310 317 323 326 330 334 337 338 337 335 333 332 329 326 323 320 312 304 292 282 269 254 241 231 225 220 217 214 212 212 211 210 209 210 210 210
298 295 294 295 296 297 301 308 316 323 328 332 337 340 341 342 340 336 334 333 330 327 324 318 310 298 283 266 250 237 228 223 218 215 211 211 210 209 208 206 208 209 209
299 297 296 297 295 295 300 308 316 323 328 333 339 342 343 344 344 341 338 336 335 334 331 325 317 305 287 264 245 232 224 220 216 213 211 209 208 208 207 207 208 208 210
300 300 300 302 301 299 302 310 315 322 329 335 340 344 346 346 346 345 343 341 339 339 337 333 324 313 291 262 243 230 221 219 215 213 209 208 207 207 207 207 207 207 209
304 302 300 302 303 303 305 311 316 322 329 336 340 344 347 348 349 348 348 346 344 343 341 338 332 322 297 263 241 232 223 217 213 210 207 206 206 208 206 206 207 207 208
312 307 303 303 304 305 307 311 316 321 328 336 340 344 348 350 352 351 352 351 349 347 344 343 337 331 313 274 238 227 218 212 208 206 202 202 204 205 205 206 207 207 208
317 314 310 308 308 309 311 312 315 320 325 332 338 342 346 350 352 352 353 353 352 353 350 349 349 342 331 297 246 224 213 206 203 201 202 201 202 205 208 207 206 207 208
321 321 318 315 314 314 316 317 319 320 323 328 334 339 343 348 351 352 353 355 355 355 356 355 355 353 352 339 271 218 210 205 204 204 202 202 204 207 208 207 207 208 209
Height
5884 5883 5883 5882 5882 5881 5880 5879 5879 5878 5877 5876 5875 5874 5873 5872 5871 5870 5870 5869 5868 5868 5868 5868 5868 5868 5869 5869 5870 5870 5871 5872 5872 5872 5873 5873 5873 5874 5874 5873 5873 5873 5872
5883 5882 5882 5881 5881 5880 5879 5878 5877 5876 5875 5874 5873 5872 5871 5870 5869 5868 5867 5866 5866 5865 5865 5865 5865 5865 5866 5866 5867 5868 5869 5869 5870 5871 5871 5871 5872 5872 5872 5872 5872 5872 5872
5882 5881 5881 5880 5879 5878 5878 5877 5876 5875 5874 5872 5871 5870 5869 5868 5866 5865 5865 5864 5863 5862 5862 5862 5862 5862 5863 5863 5864 5865 5866 5867 5868 5868 5869 5870 5870 5871 5871 5871 5871 5871 5871
5881 5880 5880 5879 5878 5877 5876 5875 5874 5873 5872 5871 5870 5868 5867 5866 5865 5863 5862 5861 5860 5860 5859 5859 5859 5859 5859 5860 5861 5862 5863 5864 5865 5866 5867 5868 5868 5869 5870 5870 5870 5871 5871
5880 5879 5878 5878 5877 5876 5875 5874 5873 5871 5870 5869 5868 5867 5865 5864 5862 5861 5860 5859 5858 5857 5856 5856 5855 5855 5856 5857 5857 5858 5860 5861 5862 5863 5864 5865 5866 5867 5868 5868 5869 5870 5870
5879 5878 5877 5876 5875 5874 5873 5872 5871 5870 5869 5868 5866 5865 5864 5862 5860 5859 5857 5856 5855 5854 5853 5852 5852 5852 5852 5853 5854 5855 5856 5858 5859 5861 5862 5863 5864 5865 5866 5867 5868 5868 5869
5878 5877 5876 5875 5874 5873 5872 5871 5870 5869 5868 5866 5865 5863 5862 5860 5858 5856 5854 5853 5852 5851 5850 5849 5849 5848 5848 5849 5850 5851 5853 5854 5856 5857 5859 5860 5862 5863 5864 5865 5866 5867 5868
5876 5875 5874 5873 5873 5872 5871 5870 5869 5868 5866 5865 5863 5861 5859 5858 5856 5854 5852 5850 5849 5848 5847 5846 5845 5845 5845 5845 5846 5847 5849 5850 5852 5854 5856 5858 5859 5861 5862 5863 5865 5866 5867
5875 5874 5873 5872 5872 5871 5870 5868 5867 5866 5865 5863 5861 5859 5857 5855 5853 5851 5849 5847 5846 5845 5843 5842 5842 5841 5841 5841 5842 5843 5845 5847 5848 5850 5852 5855 5856 5858 5860 5861 5863 5864 5866
5874 5873 5872 5871 5870 5869 5868 5867 5866 5865 5863 5861 5859 5857 5855 5853 5851 5849 5847 5845 5843 5841 5840 5839 5838 5838 5837 5838 5838 5839 5841 5842 5844 5846 5849 5851 5854 5856 5857 5859 5861 5862 5864
5873 5872 5871 5870 5869 5868 5867 5866 5865 5863 5861 5859 5857 5855 5853 5850 5848 5846 5844 5842 5840 5838 5837 5836 5835 5834 5834 5834 5834 5835 5836 5838 5841 5843 5845 5848 5851 5853 5855 5857 5859 5861 5862
5872 5871 5870 5869 5868 5867 5866 5864 5863 5861 5859 5857 5855 5853 5850 5848 5845 5843 5841 5839 5837 5835 5833 5832 5831 5830 5829 5829 5830 5831 5832 5834 5837 5839 5842 5845 5847 5850 5852 5855 5857 5859 5861
5871 5870 5869 5868 5867 5866 5865 5863 5861 5860 5858 5855 5853 5850 5848 5845 5843 5840 5838 5836 5833 5832 5830 5828 5827 5826 5825 5825 5825 5826 5828 5830 5832 5835 5838 5841 5844 5847 5849 5852 5855 5857 5859
5869 5869 5868 5867 5866 5865 5863 5862 5860 5858 5856 5854 5851 5848 5845 5843 5840 5838 5835 5832 5830 5828 5826 5824 5823 5821 5820 5820 5821 5822 5823 5826 5828 5831 5834 5837 5840 5843 5846 5849 5852 5855 5857
5868 5867 5866 5865 5864 5863 5862 5860 5859 5856 5854 5851 5849 5846 5843 5840 5838 5835 5832 5830 5827 5825 5823 5820 5819 5817 5816 5816 5816 5817 5819 5821 5824 5826 5830 5833 5836 5840 5843 5846 5849 5852 5855
5867 5866 5865 5864 5863 5862 5860 5859 5857 5855 5852 5849 5847 5844 5841 5838 5835 5833 5830 5827 5824 5821 5819 5816 5814 5813 5812 5811 5811 5812 5814 5817 5819 5822 5825 5829 5833 5837 5840 5843 5846 5849 5852
5866 5865 5864 5863 5862 5861 5859 5857 5855 5853 5851 5848 5845 5842 5839 5836 5833 5830 5827 5824 5821 5818 5815 5812 5810 5808 5807 5807 5807 5808 5810 5812 5815 5818 5822 5825 5829 5833 5837 5840 5843 5847 5849
5864 5863 5862 5862 5861 5859 5858 5856 5854 5852 5849 5847 5843 5840 5837 5834 5830 5827 5824 5821 5818 5814 5811 5808 5806 5804 5803 5802 5803 5803 5805 5808 5811 5814 5818 5822 5825 5829 5833 5837 5841 5844 5846
5863 5862 5861 5860 5859 5858 5857 5855 5853 5850 5848 5845 5842 5838 5835 5832 5828 5825 5821 5818 5815 5811 5807 5804 5802 5800 5799 5798 5799 5800 5801 5804 5807 5810 5814 5818 5822 5826 5829 5833 5837 5841 5844
5861 5861 5860 5859 5858 5857 5855 5854 5852 5849 5847 5844 5840 5837 5834 5830 5826 5822 5819 5816 5812 5808 5804 5801 5799 5797 5795 5795 5795 5797 5798 5800 5803 5807 5811 5814 5818 5822 5826 5830 5834 5838 5842
5860 5859 5858 5857 5856 5855 5854 5852 5850 5848 5845 5842 5839 5836 5832 5828 5824 5820 5817 5813 5809 5805 5802 5799 5796 5794 5793 5792 5793 5794 5795 5797 5800 5803 5807 5811 5815 5819 5823 5827 5831 5835 5839
5858 5857 5856 5856 5855 5853 5852 5851 5849 5847 5844 5841 5838 5835 5831 5827 5823 5819 5815 5811 5807 5804 5800 5797 5794 5792 5791 5791 5791 5792 5793 5796 5797 5800 5804 5808 5812 5816 5820 5824 5828 5832 5836
5857 5856 5855 5854 5853 5852 5851 5849 5848 5845 5843 5840 5837 5834 5830 5826 5822 5818 5813 5810 5806 5802 5799 5796 5793 5791 5790 5789 5789 5790 5791 5793 5795 5798 5801 5805 5810 5813 5817 5822 5826 5830 5833
5856 5855 5854 5853 5852 5851 5849 5848 5846 5844 5842 5839 5836 5833 5829 5825 5821 5817 5813 5809 5805 5802 5798 5795 5792 5790 5789 5788 5788 5789 5789 5791 5793 5796 5800 5803 5807 5811 5815 5819 5823 5827 5830
5855 5854 5853 5852 5851 5850 5848 5847 5845 5843 5841 5838 5835 5832 5829 5825 5821 5817 5813 5809 5805 5801 5798 5795 5792 5790 5789 5788 5788 5788 5789 5790 5792 5794 5798 5801 5805 5808 5812 5816 5820 5824 5828
5853 5852 5851 5850 5849 5848 5847 5845 5843 5842 5840 5837 5834 5831 5828 5824 5821 5817 5813 5809 5805 5801 5798 5795 5792 5790 5789 5788 5788 5788 5788 5789 5791 5793 5796 5800 5803 5806 5810 5813 5817 5821 5825